NVS-01 (IRNSS-1J)

Last updated on Thu Oct 30 2025 00:02:52 GMT+0000 (Coordinated Universal Time)

1 56759U 23076A 25302.42540412 -.00000328 00000+0 00000+0 0 9996 2 56759 2.7330 253.1307 0007057 349.7924 77.9439 1.00272302 8809
UTC large
Height (km)
Speed (km/s)
/
Latitude / Longitude
Inclination (degrees)
Orbital Period (minutes)
Azimuth
Elevation
Range (km)
Doppler Factor

Next 0 passes for location: London (51.5072 / 0.1276)

Sorry there are no passes over London.